DW8947 Weather Reports


time (UTC)temp
F
wind
direction
speed
knots
gust
knots
rain 1hr
in
rain 24hr
in
rain mn
in
humidity
%
barometer
mb
20260510051704 58 81 0.0 1.7 0.00 0.00 0.00 72 1014.5
20260510051204 58 81 0.0 1.7 0.00 0.00 0.00 72 1014.6
20260510045704 57 81 0.0 1.7 0.00 0.00 0.00 72 1014.6
20260510044704 57 81 0.0 1.7 0.00 0.00 0.00 72 1014.7
20260510044204 57 81 0.0 1.7 0.00 0.00 0.00 72 1014.6
20260510043704 58 81 0.0 1.7 0.00 0.00 0.00 72 1014.6
20260510043203 58 81 0.0 1.7 0.00 0.00 0.00 72 1014.6
20260510042703 58 81 0.0 1.7 0.00 0.00 0.00 72 1014.6
20260510042204 58 81 0.0 1.7 0.00 0.00 0.00 72 1014.6
20260510041704 58 81 0.0 1.7 0.00 0.00 0.00 71 1014.6
20260510041204 58 81 0.0 1.7 0.00 0.00 0.00 71 1014.5
20260510035704 59 81 0.0 1.7 0.00 0.00 0.00 72 1014.4
20260510034704 59 81 0.0 1.7 0.00 0.00 0.00 72 1014.5
20260510034203 59 81 0.0 0.9 0.00 0.00 0.00 73 1014.5
20260510032204 60 90 0.0 0.9 0.00 0.00 0.00 73 1014.5
20260510031203 61 90 0.0 0.0 0.00 0.00 0.00 73 1014.6
20260510030204 61 90 0.0 0.0 0.00 0.00 0.00 72 1014.6
20260510025704 61 90 0.0 0.0 0.00 0.00 0.00 72 1014.6
20260510023704 62 90 0.0 0.0 0.00 0.00 0.00 71 1014.8
20260510023204 62 90 0.0 0.0 0.00 0.00 0.00 70 1014.8
20260510022204 63 90 0.0 0.0 0.00 0.00 0.00 69 1014.8
20260510021704 63 90 0.0 0.0 0.00 0.00 0.00 68 1014.9
20260510020703 63 90 0.0 1.7 0.00 0.00 0.00 69 1014.9
20260510020204 63 90 0.0 0.0 0.00 0.00 0.00 67 1015.1
20260510014705 64 90 0.0 1.7 0.00 0.00 0.00 65 1015.2
20260510014204 64 358 0.0 1.7 0.00 0.00 0.00 65 1015.3
20260510013704 64 358 0.0 1.7 0.00 0.00 0.00 67 1015.4
20260510013204 64 358 0.0 1.7 0.00 0.00 0.00 63 1015.5
20260510012204 64 48 0.0 1.7 0.00 0.00 0.00 66 1015.6
20260510011204 64 90 0.0 1.7 0.00 0.00 0.00 64 1015.8
20260510010704 64 306 0.0 0.9 0.00 0.00 0.00 64 1015.9
20260510010204 64 308 0.9 1.7 0.00 0.00 0.00 63 1015.9
20260510005204 64 312 0.0 1.7 0.00 0.00 0.00 64 1016.0
20260510003704 64 312 0.0 1.7 0.00 0.00 0.00 63 1016.0
20260510002204 65 306 0.0 0.9 0.00 0.00 0.00 63 1016.2
20260510001704 65 306 0.0 0.9 0.00 0.00 0.00 63 1016.1
20260510001205 65 306 0.0 1.7 0.00 0.00 0.00 63 1016.2
20260509235704 66 333 0.0 0.9 0.00 0.00 0.00 61 1016.3
20260509234704 66 70 0.0 1.7 0.00 0.00 0.00 61 1016.5
20260509234205 66 145 0.0 1.7 0.00 0.00 0.00 60 1016.6
20260509233205 66 312 0.0 1.7 0.00 0.00 0.00 60 1016.6
20260509231705 67 333 0.0 1.7 0.00 0.00 0.00 57 1016.7
20260509231205 67 306 0.0 1.7 0.00 0.00 0.00 58 1016.9
20260509230205 67 357 0.0 1.7 0.00 0.00 0.00 58 1016.9
20260509220705 68 122 0.0 0.9 0.00 0.00 0.00 57 1017.5
20260509215705 68 240 0.0 1.7 0.00 0.00 0.00 57 1017.4
20260509214205 67 167 0.0 0.9 0.00 0.00 0.00 56 1017.6
20260509210705 67 274 0.9 1.7 0.00 0.00 0.00 56 1018.1
20260509205204 67 273 0.0 1.7 0.00 0.00 0.00 59 1018.0
20260509204205 67 293 0.0 1.7 0.00 0.00 0.00 60 1018.3
20260509201705 67 262 0.0 1.7 0.00 0.00 0.00 58 1018.2
20260509195704 68 198 0.0 1.7 0.00 0.00 0.00 59 1018.7
20260509194705 67 322 0.0 1.7 0.00 0.00 0.00 61 1018.8
20260509193205 66 356 0.0 1.7 0.00 0.00 0.00 63 1019.0
20260509192705 66 356 0.9 1.7 0.00 0.00 0.00 62 1019.1
20260509191705 65 291 0.0 1.7 0.00 0.00 0.00 62 1019.2
20260509190205 64 296 0.0 1.7 0.00 0.00 0.00 67 1019.4
20260509184704 63 216 0.0 0.9 0.00 0.00 0.00 67 1019.5
20260509183705 62 239 0.0 1.7 0.00 0.00 0.00 67 1019.5
20260509183205 62 231 0.0 1.7 0.00 0.00 0.00 69 1019.6
20260509182705 62 219 0.0 1.7 0.00 0.00 0.00 69 1019.7
20260509182204 61 156 0.0 1.7 0.00 0.00 0.00 70 1019.7
20260509181705 61 65 0.9 1.7 0.00 0.00 0.00 67 1019.7
20260509180705 60 194 0.0 1.7 0.00 0.00 0.00 71 1019.7
20260509175205 59 212 0.0 1.7 0.00 0.00 0.00 71 1019.8
20260509174705 59 212 0.0 1.7 0.00 0.00 0.00 71 1019.9
20260509174205 59 212 0.0 1.7 0.00 0.00 0.00 74 1019.9
20260509173705 59 266 0.0 0.9 0.00 0.00 0.00 75 1019.9
20260509172705 58 293 0.9 1.7 0.00 0.00 0.00 76 1020.0
20260509172205 58 204 0.0 1.7 0.00 0.00 0.00 80 1020.1
20260509171705 58 302 0.0 1.7 0.00 0.00 0.00 81 1020.1
20260509171204 57 302 0.9 1.7 0.00 0.00 0.00 79 1020.1
20260509170705 57 298 0.0 0.9 0.00 0.00 0.00 82 1020.1
20260509170205 57 298 0.0 1.7 0.00 0.00 0.00 82 1020.1
20260509164705 56 137 0.0 1.7 0.00 0.00 0.00 85 1020.2
20260509162705 55 247 0.0 1.7 0.00 0.00 0.00 87 1020.3
20260509155705 53 243 0.0 0.0 0.00 0.00 0.00 91 1020.6
20260509155205 53 243 0.0 0.9 0.00 0.00 0.00 92 1020.6
20260509153705 52 243 0.0 0.9 0.00 0.00 0.00 94 1020.6
20260509152705 52 243 0.0 0.0 0.00 0.00 0.00 95 1020.6
20260509151704 51 243 0.0 0.0 0.00 0.00 0.00 95 1020.6
20260509151206 51 243 0.0 0.0 0.00 0.00 0.00 95 1020.7
20260509150705 51 243 0.0 0.9 0.00 0.00 0.00 95 1020.7
20260509150205 50 243 0.0 1.7 0.00 0.00 0.00 95 1020.8
20260509145205 50 243 0.0 0.0 0.00 0.00 0.00 95 1021.0
20260509144704 50 243 0.0 0.0 0.00 0.00 0.00 95 1021.1
20260509144205 49 243 0.0 0.0 0.00 0.00 0.00 95 1021.1
20260509143705 49 243 0.0 0.0 0.00 0.00 0.00 95 1021.0
20260509143205 49 243 0.0 0.0 0.00 0.00 0.00 95 1020.9
20260509142705 49 243 0.0 0.0 0.00 0.00 0.00 95 1020.9
20260509142204 49 243 0.0 1.7 0.00 0.00 0.00 94 1021.0
20260509141204 48 243 0.0 0.0 0.00 0.00 0.00 94 1021.0
20260509140704 48 243 0.0 0.0 0.00 0.00 0.00 94 1021.1
20260509134205 49 243 0.0 0.0 0.00 0.00 0.00 94 1021.0
20260509133205 48 243 0.0 0.0 0.00 0.00 0.00 94 1021.0
20260509132704 48 243 0.0 0.0 0.00 0.00 0.00 94 1021.0
20260509131704 48 243 0.0 0.0 0.00 0.00 0.00 94 1021.0
20260509130205 48 243 0.0 0.0 0.00 0.00 0.00 93 1021.0
20260509125205 48 243 0.0 0.0 0.00 0.00 0.00 93 1021.1
20260509124704 48 243 0.0 0.0 0.00 0.00 0.00 93 1020.9
20260509123205 48 243 0.0 0.0 0.00 0.00 0.00 93 1020.8
20260509121205 48 243 0.0 0.0 0.00 0.00 0.00 92 1021.0
20260509120205 48 243 0.0 0.0 0.00 0.00 0.00 92 1021.1
20260509115704 48 243 0.0 0.0 0.00 0.00 0.00 91 1021.1
20260509114205 48 243 0.0 0.0 0.00 0.00 0.00 91 1021.2
20260509110705 49 243 0.0 0.0 0.00 0.00 0.00 91 1021.2
20260509110205 49 243 0.0 0.0 0.00 0.00 0.00 90 1021.3
20260509105705 49 243 0.0 0.0 0.00 0.00 0.00 90 1021.2
20260509105205 49 243 0.0 0.0 0.00 0.00 0.00 90 1021.3
20260509103206 50 243 0.0 0.0 0.00 0.00 0.00 89 1021.3
20260509102705 50 243 0.0 0.0 0.00 0.00 0.00 89 1021.2
20260509095705 49 243 0.0 1.7 0.00 0.00 0.00 88 1021.4
20260509094705 49 243 0.0 0.0 0.00 0.00 0.00 87 1021.5
20260509093705 49 243 0.0 0.0 0.00 0.00 0.00 87 1021.4
20260509092705 49 243 0.0 0.0 0.00 0.00 0.00 87 1021.4
20260509092205 49 243 0.0 0.0 0.00 0.00 0.00 87 1021.5
20260509091704 49 243 0.0 0.0 0.00 0.00 0.00 87 1021.5
20260509090704 49 243 0.0 0.0 0.00 0.00 0.00 87 1021.5
20260509090204 49 243 0.0 0.0 0.00 0.00 0.00 87 1021.5
20260509085705 49 243 0.0 0.0 0.00 0.00 0.00 86 1021.5
20260509085205 49 243 0.0 0.0 0.00 0.00 0.00 86 1021.6
20260509084205 49 243 0.0 0.0 0.00 0.00 0.00 85 1021.7
20260509083205 49 243 0.0 0.0 0.00 0.00 0.00 84 1021.7
20260509082705 49 243 0.0 0.0 0.00 0.00 0.00 84 1021.8
20260509082204 49 243 0.0 0.0 0.00 0.00 0.00 84 1021.7
20260509080204 49 243 0.0 0.0 0.00 0.00 0.00 83 1021.6
20260509075705 49 243 0.0 0.0 0.00 0.00 0.00 83 1021.6
20260509075204 49 243 0.0 0.0 0.00 0.00 0.00 83 1021.6
20260509074205 49 243 0.0 0.0 0.00 0.00 0.00 82 1021.6
20260509073705 49 243 0.0 0.0 0.00 0.00 0.00 82 1021.6
20260509073205 50 243 0.0 0.0 0.00 0.00 0.00 82 1021.6
20260509072705 50 243 0.0 0.0 0.00 0.00 0.00 82 1021.6
20260509072205 50 243 0.0 0.0 0.00 0.00 0.00 82 1021.5
20260509071705 50 243 0.0 0.0 0.00 0.00 0.00 82 1021.5
20260509071205 50 243 0.0 1.7 0.00 0.00 0.00 82 1021.5
20260509070205 51 243 0.0 0.0 0.00 0.00 0.00 82 1021.4
20260509065705 51 243 0.0 1.7 0.00 0.00 0.00 82 1021.4
20260509063705 51 108 0.0 0.9 0.00 0.00 0.00 81 1021.2
20260509062705 51 110 0.0 1.7 0.00 0.00 0.00 81 1021.2
20260509062205 51 110 0.0 1.7 0.00 0.00 0.00 81 1021.1
20260509061705 51 110 0.0 1.7 0.00 0.00 0.00 82 1021.1
20260509060704 51 144 0.0 0.0 0.00 0.00 0.00 82 1021.1
20260509054705 51 189 0.0 1.7 0.00 0.00 0.00 81 1021.0
20260509052704 51 192 0.0 0.9 0.00 0.00 0.00 81 1021.1
20260509052204 52 232 0.0 0.0 0.00 0.00 0.00 80 1021.1